Flag Weather past 2 weeks in Ingolstadt, Bavaria, Germany

Now
41 °F

Fog.


Feels Like: 41 °F
Forecast: 34 / 45 °F
Wind: 2 mph from Northeast

Location: Ingolstadt Airport

Current Time: Nov 24, 2014 at 10:54:40 AM

Latest Report: Nov 24, 2014 at 10:20 AM


Visibility: 3 mi

Pressure: 30.21 "Hg

Humidity: 93%

Dew point: 39 °F

Location of IngolstadtLocation

Historic Weather in Ingolstadt — Graph

°F

Ingolstadt temperature yesterday

Maximum temperature yesterday: 39 °F (at 3:20 PM)
Minimum temperature yesterday: 32 °F (at 5:20 AM)
Average temperature yesterday: 36 °F

Past Weeks' High & Low Weather Summary

 TemperatureHumidityPressure
High52 °F (Nov 16, 1:20 PM)100% (Nov 9, 11:20 PM)30.30 "Hg (Nov 9, 11:20 PM)
Low32 °F (Nov 23, 5:20 AM)71% (Nov 16, 12:20 PM)29.47 "Hg (Nov 16, 12:20 AM)
Average43 °F94%29.89 "Hg
* Reported Nov 9 9:20 AM — Nov 24 9:20 AM, Ingolstadt, Weather by CustomWeather, © 2014

Note: Actual official high and low records may vary slightly from our data, if they occured in-between our weather recording intervals... More about our weather records

Advertising

Ingolstadt weather history for previous 24 hours

 ConditionsComfort  
Time TempWeatherWind HumidityBarometerVisibility
9:20 AM
Nov 24
39 °FFog.1 mph100%30.18 "Hg2 mi
8:20 AM39 °FFog.6 mph93%30.18 "Hg2 mi
7:20 AM39 °FFog.5 mph100%30.18 "Hg2 mi
6:20 AM39 °FFog.2 mph100%30.18 "Hg2 mi
5:20 AM39 °FFog.3 mph100%30.18 "Hg2 mi
4:20 AM39 °FChilly.2 mph100%30.18 "HgN/A
3:20 AM39 °FChilly.3 mph100%30.18 "HgN/A
2:20 AM39 °FChilly.6 mph100%30.18 "HgN/A
1:20 AM39 °FChilly.6 mph100%30.18 "HgN/A
12:20 AM39 °FChilly.5 mph100%30.21 "HgN/A
11:20 PM
Nov 23
39 °FChilly.6 mph100%30.21 "HgN/A
10:20 PM39 °FChilly.5 mph93%30.21 "HgN/A
9:20 PM37 °FChilly.7 mph100%30.21 "HgN/A
8:20 PM37 °FChilly.8 mph100%30.21 "HgN/A
7:20 PM39 °FChilly.8 mph93%30.21 "HgN/A
6:20 PM39 °FChilly.6 mph93%30.21 "HgN/A
5:20 PM39 °FChilly.8 mph93%30.21 "HgN/A
4:20 PM39 °FChilly.7 mph93%30.21 "HgN/A
3:20 PM39 °FChilly.5 mph93%30.21 "HgN/A
2:20 PM37 °FChilly.7 mph100%30.24 "HgN/A
1:20 PM37 °FChilly.7 mph100%30.24 "HgN/A
12:20 PM36 °FChilly.5 mph100%30.27 "HgN/A
11:20 AM36 °FChilly.6 mph100%30.27 "HgN/A
10:20 AM34 °FChilly.6 mph100%30.27 "HgN/A
Weather by CustomWeather, © 2014

See weather overviewHow to use our weather pages